| time (UTC) | temp F | wind direction | speed knots | gust knots | rain 1hr in | rain 24hr in | rain mn in | humidity % | barometer mb |
| 20260506211608 | 75 | 326 | 0.9 | 4.3 | 0.00 | 0.00 | 0.00 | 47 | 1018.4 |
| 20260506210054 | 76 | 2 | 0.0 | 4.3 | 0.00 | 0.00 | 0.00 | 48 | 1018.4 |
| 20260506204551 | 75 | 233 | 0.9 | 4.3 | 0.00 | 0.00 | 0.00 | 50 | 1018.5 |
| 20260506203049 | 74 | 125 | 0.0 | 4.3 | 0.00 | 0.00 | 0.00 | 53 | 1018.7 |
| 20260506201549 | 73 | 272 | 0.9 | 4.3 | 0.00 | 0.00 | 0.00 | 51 | 1018.9 |
| 20260506200049 | 74 | 322 | 0.0 | 6.1 | 0.00 | 0.00 | 0.00 | 52 | 1019.1 |
| 20260506194549 | 73 | 226 | 0.0 | 5.2 | 0.00 | 0.00 | 0.00 | 53 | 1019.3 |
| 20260506193044 | 72 | 323 | 0.9 | 4.3 | 0.00 | 0.00 | 0.00 | 54 | 1019.4 |
| 20260506191541 | 71 | 271 | 0.9 | 6.1 | 0.00 | 0.00 | 0.00 | 54 | 1019.6 |
| 20260506190038 | 71 | 11 | 0.0 | 3.5 | 0.00 | 0.00 | 0.00 | 56 | 1019.6 |
| 20260506184537 | 70 | 299 | 0.9 | 4.3 | 0.00 | 0.00 | 0.00 | 57 | 1019.7 |
| 20260506183038 | 70 | 322 | 0.0 | 1.7 | 0.00 | 0.00 | 0.00 | 59 | 1019.8 |
| 20260506181535 | 69 | 137 | 0.0 | 3.5 | 0.00 | 0.00 | 0.00 | 60 | 1019.8 |
| 20260506180038 | 69 | 193 | 0.0 | 2.6 | 0.00 | 0.00 | 0.00 | 60 | 1019.8 |
| 20260506174529 | 68 | 27 | 0.0 | 2.6 | 0.00 | 0.00 | 0.00 | 64 | 1019.9 |
| 20260506173025 | 67 | 188 | 0.0 | 2.6 | 0.00 | 0.00 | 0.00 | 65 | 1020.0 |
| 20260506171525 | 66 | 283 | 0.0 | 2.6 | 0.00 | 0.00 | 0.00 | 65 | 1020.0 |
| 20260506170022 | 65 | 221 | 1.7 | 5.2 | 0.00 | 0.00 | 0.00 | 65 | 1020.0 |
| 20260506164518 | 64 | 224 | 0.0 | 3.5 | 0.00 | 0.00 | 0.00 | 68 | 1020.1 |
| 20260506163015 | 64 | 199 | 0.0 | 2.6 | 0.00 | 0.00 | 0.00 | 68 | 1020.2 |
| 20260506161514 | 63 | 259 | 0.0 | 1.7 | 0.00 | 0.00 | 0.00 | 68 | 1020.3 |
| 20260506160015 | 62 | 172 | 0.0 | 3.5 | 0.00 | 0.00 | 0.00 | 71 | 1020.3 |
| 20260506154509 | 61 | 224 | 1.7 | 3.5 | 0.00 | 0.00 | 0.00 | 71 | 1020.3 |
| 20260506153008 | 62 | 290 | 0.0 | 3.5 | 0.00 | 0.00 | 0.00 | 71 | 1020.4 |
| 20260506151507 | 61 | 209 | 0.0 | 2.6 | 0.00 | 0.00 | 0.00 | 74 | 1020.4 |
| 20260506144557 | 57 | 150 | 0.0 | 2.6 | 0.00 | 0.00 | 0.00 | 83 | 1020.4 |
| 20260506143053 | 54 | 212 | 0.0 | 0.9 | 0.00 | 0.00 | 0.00 | 87 | 1020.3 |
| 20260506141606 | 53 | 210 | 0.0 | 0.9 | 0.00 | 0.00 | 0.00 | 88 | 1020.1 |
| 20260506140047 | 53 | 222 | 0.0 | 0.0 | 0.00 | 0.00 | 0.00 | 89 | 1019.9 |
| 20260506134546 | 52 | 223 | 0.0 | 0.9 | 0.00 | 0.00 | 0.00 | 90 | 1019.8 |
| 20260506133045 | 52 | 223 | 0.0 | 0.0 | 0.00 | 0.00 | 0.00 | 89 | 1019.8 |
| 20260506131544 | 52 | 223 | 0.0 | 0.0 | 0.00 | 0.00 | 0.00 | 89 | 1019.7 |
| 20260506130042 | 53 | 223 | 0.0 | 0.0 | 0.00 | 0.00 | 0.00 | 88 | 1019.5 |
| 20260506124542 | 53 | 223 | 0.0 | 0.0 | 0.00 | 0.00 | 0.00 | 88 | 1019.4 |
| 20260506123043 | 53 | 223 | 0.0 | 0.0 | 0.00 | 0.00 | 0.00 | 88 | 1019.4 |
| 20260506121543 | 53 | 223 | 0.0 | 0.0 | 0.00 | 0.00 | 0.00 | 87 | 1019.3 |
| 20260506120104 | 53 | 223 | 0.0 | 0.0 | 0.00 | 0.00 | 0.00 | 88 | 1019.3 |
| 20260506114536 | 53 | 223 | 0.0 | 0.0 | 0.00 | 0.00 | 0.00 | 88 | 1019.3 |
| 20260506113032 | 53 | 223 | 0.0 | 0.0 | 0.00 | 0.00 | 0.00 | 88 | 1019.2 |
| 20260506111530 | 53 | 223 | 0.0 | 0.0 | 0.00 | 0.00 | 0.00 | 88 | 1019.0 |
| 20260506110028 | 53 | 223 | 0.0 | 0.0 | 0.00 | 0.00 | 0.00 | 88 | 1018.9 |
| 20260506104529 | 53 | 223 | 0.0 | 0.0 | 0.00 | 0.00 | 0.00 | 88 | 1018.8 |
| 20260506103030 | 53 | 223 | 0.0 | 0.0 | 0.00 | 0.00 | 0.00 | 88 | 1018.9 |
| 20260506101526 | 53 | 223 | 0.0 | 0.0 | 0.00 | 0.00 | 0.00 | 89 | 1018.7 |
| 20260506100024 | 52 | 223 | 0.0 | 0.0 | 0.00 | 0.00 | 0.00 | 89 | 1018.8 |
| 20260506094531 | 52 | 223 | 0.0 | 0.9 | 0.00 | 0.01 | 0.00 | 89 | 1018.7 |
| 20260506093029 | 52 | 223 | 0.0 | 0.9 | 0.00 | 0.01 | 0.00 | 90 | 1018.7 |
| 20260506091517 | 51 | 223 | 0.0 | 0.0 | 0.00 | 0.01 | 0.00 | 91 | 1018.7 |
| 20260506090015 | 51 | 223 | 0.0 | 0.0 | 0.00 | 0.01 | 0.00 | 92 | 1018.7 |
| 20260506084515 | 50 | 223 | 0.0 | 0.0 | 0.00 | 0.04 | 0.00 | 92 | 1018.7 |
| 20260506083014 | 50 | 223 | 0.0 | 0.0 | 0.00 | 0.04 | 0.00 | 92 | 1018.6 |
| 20260506081512 | 50 | 223 | 0.0 | 0.0 | 0.00 | 0.04 | 0.00 | 91 | 1018.7 |
| 20260506073006 | 51 | 223 | 0.0 | 0.0 | 0.00 | 0.08 | 0.00 | 89 | 1018.5 |
| 20260506071507 | 51 | 223 | 0.0 | 0.0 | 0.00 | 0.08 | 0.00 | 87 | 1018.4 |
| 20260506070117 | 52 | 223 | 0.0 | 0.0 | 0.00 | 0.08 | 0.00 | 87 | 1018.2 |
| 20260506061554 | 53 | 243 | 0.0 | 0.0 | 0.00 | 0.11 | 0.08 | 85 | 1017.8 |
| 20260506044554 | 55 | 206 | 0.9 | 3.5 | 0.00 | 0.15 | 0.08 | 81 | 1017.2 |
| 20260506043046 | 56 | 219 | 0.0 | 2.6 | 0.00 | 0.15 | 0.08 | 80 | 1017.0 |
| 20260506041550 | 56 | 297 | 0.0 | 3.5 | 0.00 | 0.15 | 0.08 | 78 | 1016.9 |
| 20260506040044 | 57 | 239 | 0.0 | 3.5 | 0.00 | 0.15 | 0.08 | 78 | 1016.7 |
| 20260506034539 | 57 | 290 | 0.9 | 4.3 | 0.00 | 0.15 | 0.08 | 77 | 1016.6 |
| 20260506033036 | 58 | 263 | 0.0 | 2.6 | 0.00 | 0.15 | 0.08 | 77 | 1016.3 |
| 20260506031544 | 58 | 195 | 0.9 | 4.3 | 0.00 | 0.15 | 0.08 | 76 | 1016.0 |
| 20260506030031 | 58 | 238 | 0.0 | 4.3 | 0.00 | 0.15 | 0.08 | 75 | 1015.8 |
| 20260506024534 | 59 | 307 | 0.0 | 5.2 | 0.00 | 0.15 | 0.08 | 74 | 1015.8 |
| 20260506023032 | 59 | 347 | 0.9 | 5.2 | 0.00 | 0.15 | 0.08 | 73 | 1015.7 |
| 20260506021530 | 59 | 201 | 0.0 | 5.2 | 0.00 | 0.15 | 0.08 | 73 | 1015.5 |
| 20260506020029 | 60 | 197 | 0.9 | 5.2 | 0.00 | 0.15 | 0.08 | 73 | 1015.3 |
| 20260506014530 | 60 | 245 | 1.7 | 7.8 | 0.00 | 0.15 | 0.08 | 72 | 1015.2 |
| 20260506013028 | 61 | 285 | 1.7 | 7.8 | 0.00 | 0.15 | 0.08 | 71 | 1015.1 |
| 20260506011528 | 62 | 188 | 1.7 | 7.0 | 0.00 | 0.15 | 0.08 | 70 | 1015.3 |
| 20260506010031 | 62 | 264 | 0.9 | 4.3 | 0.00 | 0.15 | 0.08 | 72 | 1015.2 |
| 20260506004536 | 62 | 295 | 0.9 | 6.1 | 0.00 | 0.15 | 0.08 | 71 | 1015.1 |
| 20260506003026 | 62 | 176 | 1.7 | 8.7 | 0.00 | 0.15 | 0.08 | 72 | 1015.0 |
| 20260506001525 | 62 | 142 | 3.5 | 7.0 | 0.00 | 0.15 | 0.08 | 71 | 1014.9 |
| 20260506000024 | 62 | 330 | 0.9 | 5.2 | 0.00 | 0.15 | 0.08 | 72 | 1014.9 |
| 20260505234559 | 62 | 290 | 0.9 | 5.2 | 0.00 | 0.15 | 0.08 | 72 | 1015.0 |
| 20260505233024 | 62 | 231 | 2.6 | 6.1 | 0.00 | 0.15 | 0.08 | 70 | 1014.9 |
| 20260505231523 | 62 | 247 | 0.9 | 4.3 | 0.00 | 0.15 | 0.08 | 71 | 1015.0 |
| 20260505230022 | 62 | 210 | 0.9 | 3.5 | 0.00 | 0.15 | 0.08 | 72 | 1015.0 |
| 20260505224528 | 62 | 167 | 0.9 | 6.1 | 0.00 | 0.15 | 0.08 | 72 | 1015.1 |
| 20260505223021 | 62 | 189 | 0.9 | 5.2 | 0.00 | 0.15 | 0.08 | 72 | 1015.0 |
| 20260505221520 | 62 | 165 | 0.0 | 5.2 | 0.00 | 0.15 | 0.08 | 72 | 1015.0 |
| 20260505220020 | 62 | 195 | 0.0 | 3.5 | 0.00 | 0.15 | 0.08 | 73 | 1015.1 |
| 20260505214619 | 61 | 159 | 1.7 | 5.2 | 0.00 | 0.15 | 0.08 | 73 | 1015.2 |
| 20260505213018 | 62 | 202 | 1.7 | 5.2 | 0.00 | 0.15 | 0.08 | 73 | 1015.3 |